Terminal Aerodrome Forecast
Issued by NWS

Home | Current Version | Previous Version | Text Only | Print | Product List | Glossary On
Versions: 1 2 3 4 5 6 7 8 9 10 11 12 13 14 15 16 17
318
FTUS43 KSGF 280520
TAFBBG
TAF
KBBG 280520Z 2806/0106 15008KT P6SM OVC015
     FM280900 16010KT P6SM OVC007
     FM281200 17012G18KT 4SM BR OVC015
     FM281800 21013G24KT P6SM SCT035 BKN150 PROB30 2823/0103 5SM
      -TSRA BR OVC035CB=

USA.gov is the U.S. government's official web portal to all federal, state and local government web resources and services.